Terug naar catalogus

SnugLite

SNUGLITE

ActiefMilitairSSO
NORAD 43784·PAYLOAD·🇰🇷 South Korea

Gelanceerd Dec 3, 2018 vanaf Vandenberg Space Force Base

Loading…

Volgende Passages (komende 24 uur)

TLE

VersSource: Space-Track

Epoch: Sep 14, 2026, 14:17 UTC

1 43784U 18099AC  26257.59583044  .00008774  00000-0  31553-3 0  9999
2 43784  97.3772 311.0608 0002220  10.3241 349.8044 15.28853238426974

Volg SnugLite in realtime met AllMySat

Download on the App Store